Regional Weather Roundup
Issued by NWS Lake Charles, LA

Home | Current Version | Previous Version | Text Only | Print | Product List | Glossary On
Versions: 1 2 3 4 5 6 7 8 9 10 11 12 13 14 15 16 17 18 19 20 21 22 23 24 25 26 27 28 29 30 31 32 33 34 35 36 37 38 39 40 41 42 43 44 45 46 47 48 49 50
000
ASUS44 KLCH 011910
RWRLCH
REGIONAL WEATHER ROUNDUP
NATIONAL WEATHER SERVICE LAKE CHARLES LA
200 PM CDT SUN MAY 01 2016

Note: "fair" indicates few or no clouds below 12,000 feet with no
significant weather and/or obstructions to visibility.


ACROSS SOUTHEAST TEXAS

CITY           SKY/WX    TMP DP  RH WIND       PRES   REMARKS
BEAUMONT       CLOUDY    74  72  93 E5        29.86F
BEAUMONT CITY  CLOUDY    75  72  91 CALM      29.87S THUNDER
ORANGE         CLOUDY    74  70  88 S3        29.87F
JASPER         MOSUNNY   83  70  63 CALM      29.88S
$$

ACROSS CENTRAL LOUISIANA

CITY           SKY/WX    TMP DP  RH WIND       PRES   REMARKS
LEESVILLE      PTSUNNY   82  71  69 SE13      29.87S
FULLERTON      MOCLDY    81  68  64 MISG      29.86R
ALEXANDRIA INT MOSUNNY   83  67  58 SE14      29.87F
ESLER FIELD    MOSUNNY   85  66  53 SE14      29.89F
DERIDDER       CLOUDY    80  71  72 SE8       29.89S
OAKDALE        CLOUDY    74  67  77 E7        29.89F
OPELOUSAS      FAIR     N/A N/A N/A CALM      29.90F
$$

ACROSS SOUTHWEST AND SOUTH CENTRAL LOUISIANA

CITY           SKY/WX    TMP DP  RH WIND       PRES   REMARKS
SULPHUR        CLOUDY    72  70  93 E7        29.90R
LAKE CHARLES   LGT RAIN  71  68  90 SE13      29.89S
CHENNAULT INT  PTSUNNY   72  68  88 E12       29.89S
CAMERON PHI    MOCLDY    70  70 100 E16G24    29.90F FOG
DEQUINCY       CLOUDY    76  69  80 E12       29.88S
JENNINGS       CLOUDY    70  66  88 S7        29.90S THUNDER
LAFAYETTE      LGT RAIN  68  65  90 S7        29.90S
NEW IBERIA     LGT RAIN  69  65  86 SE7       29.91R
ABBEVILLE      DRIZZLE   67  66  96 CALM      29.91R
PATTERSON      NOT AVBL
SALT POINT       N/A     69  68  96 SE8       29.92R
$$

SELECTED SITES ACROSS THE REGION

CITY           SKY/WX    TMP DP  RH WIND       PRES   REMARKS
HOUSTON BUSH   CLOUDY    82  73  74 VRB7      29.84F
HOUSTON HOBBY  CLOUDY    82  74  76 E5        29.83F
GALVESTON      CLOUDY    80  77  90 SE8       29.85S FOG
COLLEGE STAT   PTSUNNY   79  64  60 N12       29.89F
CONROE         CLOUDY    82  71  69 VRB5      29.86F
HUNTSVILLE     CLOUDY    81  68  64 VRB3      29.89S
LUFKIN         CLOUDY    80  69  69 NE3       29.88S
SHREVEPORT     PTSUNNY   81  69  67 N9        29.90F
MONROE         MOSUNNY   83  71  67 E3        29.90F
NATCHEZ MS     PTSUNNY   77  70  78 E5        29.89F
BATON ROUGE    CLOUDY    69  66  90 SE8       29.88F
N.O. INTL ARPT RAIN      72  68  87 NE7       29.99F FOG
SLIDELL        LGT RAIN  70  69  97 NE5       30.00R
$$

MARINE REPORTS

STATION/POSITION TIME  SKY/WX   TEMP    WIND        PRES    VSBY
                                AIR SEA DIR/SP/G
                 (UTC)          (F)     (DEG/KT/KT) (MB)    (MI)
BUOY 30 S HIGH I 1850            77 76  160/  4/  6 1010.1S
WVE H/P(F/S)=  3/ 8

SEA RIM ST PARK  1800            72      40/  8/ 11 1011.8F
PORT ARTHUR      1800               76   90/  3/  5 1011.4F
SABINE PASS N    1800            72 78   60/  9/ 10 1012.7F
TEXAS POINT      NOT AVBL
CALCASIEU PASS   1800            71 78  120/ 17/ 22 1010.8F
LK CHARLES BEACH 1800            71 73              1012.4R
MARSH ISLAND     1800            69     160/ 23/ 28   N/A
FRESH WATER LOCK 1800            69 76   70/ 10/ 14 1013.7S
AMERADA PASS     1800            68 72   60/  6/ 11 1013.5F
$$



USA.gov is the U.S. government's official web portal to all federal, state and local government web resources and services.